This demonstration page uses our WeatherBlox Daily Observations layout. Learn more.

Hourly Observations for July 21, 2019

Temp ( °F °C ) Dew Point ( °F °C ) Humidity (%) Winds ( mph kmh ) Pressure ( in mb ) Visibility ( mi km ) Precip ( " mm )
12:15 am 00:15 Clear 77 25 73 23 89 89 Calm 29.91 1013 10 16.09344 0 0
12:35 am 00:35 Clear 77 25 73 23 89 89 Calm 29.91 1013 10 16.09344 0 0
12:55 am 00:55 Clear 79 26 73 23 84 84 WNW 3 6 29.91 1013 10 16.09344 0 0
1:15 am 01:15 Clear 79 26 73 23 84 84 Calm 29.91 1013 10 16.09344 0 0
1:35 am 01:35 Clear 79 26 73 23 84 84 Calm 29.91 1013 10 16.09344 0 0
1:55 am 01:55 Clear 77 25 73 23 89 89 SW 6 9 29.91 1013 10 16.09344 0 0
2:15 am 02:15 Clear 77 25 73 23 89 89 WSW 5 7 29.91 1013 10 16.09344 0 0
2:35 am 02:35 Clear 77 25 73 23 89 89 WSW 3 6 29.91 1013 10 16.09344 0 0
2:55 am 02:55 Clear 77 25 73 23 89 89 WSW 3 6 29.91 1013 10 16.09344 0 0
3:15 am 03:15 Clear 77 25 73 23 89 89 Calm 29.91 1013 10 16.09344 0 0
3:35 am 03:35 Clear 77 25 73 23 89 89 Calm 29.88 1012 10 16.09344 0 0
3:55 am 03:55 Clear 77 25 73 23 89 89 WSW 5 7 29.88 1012 10 16.09344 0 0
4:15 am 04:15 Clear 75 24 73 23 94 94 Calm 29.88 1012 10 16.09344 0 0
4:35 am 04:35 Clear 77 25 73 23 89 89 WSW 3 6 29.88 1012 10 16.09344 0 0
4:55 am 04:55 Clear 77 25 73 23 89 89 Calm 29.88 1012 10 16.09344 0 0
5:15 am 05:15 Clear 77 25 73 23 89 89 Calm 29.88 1012 10 16.09344 0 0
5:35 am 05:35 Clear 77 25 73 23 89 89 SSW 5 7 29.88 1012 10 16.09344 0 0
5:55 am 05:55 Clear 77 25 73 23 89 89 SSW 7 11 29.88 1012 10 16.09344 0 0
6:15 am 06:15 Sunny 77 25 73 23 89 89 W 3 6 29.91 1013 10 16.09344 0 0
6:35 am 06:35 Sunny 77 25 73 23 89 89 WSW 3 6 29.91 1013 10 16.09344 0 0
6:55 am 06:55 Sunny 77 25 73 23 89 89 SW 5 7 29.91 1013 10 16.09344 0 0
7:15 am 07:15 Sunny 79 26 73 23 84 84 SW 3 6 29.94 1014 10 16.09344 0 0
7:35 am 07:35 Sunny 81 27 73 23 79 79 SSW 3 6 29.94 1014 10 16.09344 0 0
7:55 am 07:55 Sunny 82 28 73 23 74 74 SW 3 6 29.94 1014 10 16.09344 0 0
8:15 am 08:15 Sunny 84 29 75 24 74 74 Calm 29.94 1014 10 16.09344 0 0
8:35 am 08:35 Sunny 86 30 77 25 75 75 Calm 29.91 1013 10 16.09344 0 0
8:55 am 08:55 Sunny 88 31 77 25 70 70 Calm 29.91 1013 10 16.09344 0 0
9:15 am 09:15 Sunny 88 31 77 25 70 70 WNW 5 7 29.91 1013 10 16.09344 0 0
9:35 am 09:35 Sunny 90 32 77 25 67 67 WNW 12 19 29.91 1013 10 16.09344 0 0
9:55 am 09:55 Sunny 90 32 77 25 67 67 WNW 10 17 29.91 1013 10 16.09344 0 0
10:15 am 10:15 Sunny 90 32 77 25 67 67 WNW 12 19 29.91 1013 10 16.09344 0 0
10:35 am 10:35 Sunny 91 33 77 25 63 63 WNW 12 19 29.91 1013 10 16.09344 0 0
10:55 am 10:55 Sunny 91 33 77 25 63 63 NW 7 11 29.91 1013 10 16.09344 0 0
11:15 am 11:15 Sunny 91 33 79 26 67 67 WNW 10 17 29.91 1013 10 16.09344 0 0
11:35 am 11:35 Sunny 91 33 79 26 67 67 W 8 13 29.91 1013 10 16.09344 0 0
11:55 am 11:55 Sunny 93 34 77 25 59 59 W 8 13 29.91 1013 10 16.09344 0 0
12:15 pm 12:15 Partly Cloudy 93 34 77 25 59 59 W 9 15 29.91 1013 10 16.09344 0 0
12:35 pm 12:35 Partly Cloudy 95 35 79 26 60 60 W 12 19 29.88 1012 10 16.09344 0 0
12:55 pm 12:55 Partly Cloudy 95 35 77 25 56 56 WNW 8 13 29.88 1012 10 16.09344 0 0
1:15 pm 13:15 Partly Cloudy 95 35 77 25 56 56 WNW 9 15 29.88 1012 10 16.09344 0 0
1:35 pm 13:35 Partly Cloudy 95 35 77 25 56 56 NW 6 9 29.88 1012 10 16.09344 0 0
1:55 pm 13:55 Partly Cloudy 97 36 77 25 53 53 WNW 7 11 29.88 1012 10 16.09344 0 0
2:15 pm 14:15 Partly Cloudy 97 36 77 25 53 53 WNW 7 11 29.88 1012 10 16.09344 0 0
2:35 pm 14:35 Partly Cloudy 97 36 77 25 53 53 NW 5 7 29.88 1012 10 16.09344 0 0
2:55 pm 14:55 Sunny 97 36 77 25 53 53 NNW 7 11 29.85 1011 10 16.09344 0 0
3:15 pm 15:15 Sunny with Thunderstorms 97 36 75 24 50 50 WNW 5 7 29.85 1011 10 16.09344 0 0
3:35 pm 15:35 Sunny 99 37 75 24 47 47 Calm 29.85 1011 10 16.09344 0 0
3:50 pm 15:50 Partly Cloudy 99 37 75 24 47 47 WSW 7 11 29.85 1011 10 16.09344 0 0
4:15 pm 16:15 Mostly Cloudy 97 36 77 25 53 53 WSW 8 13 29.85 1011 10 16.09344 0 0
4:35 pm 16:35 Partly Cloudy 99 37 77 25 50 50 SW 7 11 29.85 1011 10 16.09344 0 0
4:55 pm 16:55 Partly Cloudy 99 37 77 25 50 50 SW 7 11 29.85 1011 10 16.09344 0 0
5:15 pm 17:15 Partly Cloudy 99 37 79 26 53 53 SSW 9 15 29.83 1010 10 16.09344 0 0
5:35 pm 17:35 Sunny 97 36 77 25 53 53 SSW 9 15 29.83 1010 10 16.09344 0 0
5:55 pm 17:55 Sunny 95 35 77 25 56 56 SW 5 7 29.83 1010 10 16.09344 0 0
6:15 pm 18:15 Partly Cloudy 95 35 77 25 56 56 WSW 7 11 29.83 1010 10 16.09344 0 0
6:35 pm 18:35 Partly Cloudy with Nearby Thunderstorms 91 33 79 26 67 67 Calm 29.83 1010 10 16.09344 0 0
6:55 pm 18:55 Mostly Cloudy with Thunderstorms 90 32 77 25 67 67 NW 30 48 29.85 1011 10 16.09344 0 0
7:15 pm 19:15 Cloudy with Thunderstorms 75 24 70 21 83 83 NW 37 59 29.91 1013 1 1.609344 0.13 3.302
7:35 pm 19:35 Cloudy with Thunderstorms 73 23 70 21 89 89 W 17 28 29.97 1015 0.75 1.207008 1.08 27.432
7:55 pm 19:55 Cloudy with Thunderstorms 77 25 68 20 74 74 E 3 6 29.91 1013 2 3.218688 1.45 36.83
8:15 pm 20:15 Partly Cloudy with Thunderstorms 73 23 72 22 94 94 W 5 7 29.88 1012 10 16.09344 0.01 0.254
8:35 pm 20:35 Mostly Cloudy 73 23 72 22 94 94 N 10 17 29.91 1013 10 16.09344 0.01 0.254
8:55 pm 20:55 Partly Cloudy with Nearby Thunderstorms 73 23 72 22 94 94 NE 5 7 29.91 1013 10 16.09344 0.01 0.254
9:15 pm 21:15 Partly Cloudy 73 23 72 22 94 94 NE 5 7 29.91 1013 10 16.09344 0 0
9:35 pm 21:35 Clear 73 23 72 22 94 94 Calm 29.88 1012 10 16.09344 0 0
9:55 pm 21:55 Clear 72 22 72 22 100 100 Calm 29.91 1013 10 16.09344 0 0
10:15 pm 22:15 Clear 73 23 73 23 100 100 Calm 29.91 1013 10 16.09344 0 0
10:35 pm 22:35 Clear 72 22 72 22 100 100 Calm 29.91 1013 10 16.09344 0 0
10:55 pm 22:55 Clear 72 22 72 22 100 100 Calm 29.91 1013 10 16.09344 0 0
11:15 pm 23:15 Clear 72 22 72 22 100 100 W 3 6 29.94 1014 10 16.09344 0 0
11:35 pm 23:35 Clear 72 22 72 22 100 100 WNW 5 7 29.94 1014 10 16.09344 0 0
11:55 pm 23:55 Clear 73 23 72 22 94 94 WNW 3 6 29.94 1014 10 16.09344 0 0

Powered by AerisWeather